Flag for Sweden Weather past 2 weeks in Eskilstuna, Sweden

Now
68 °F

Sunny.


Feels Like: 68 °F
Forecast: 51 / 65 °F
Wind: 8 mph from North

Location: Vasteras / Hasslo

Current Time: Aug 28, 2014 at 5:19:49 PM

Latest Report: Aug 28, 2014 at 4:50 PM


Visibility: 10 mi

Pressure: 29.92 "Hg

Humidity: 46%

Dew point: 46 °F

Location of EskilstunaLocation

Historic Weather in Eskilstuna — Graph

°F

Eskilstuna temperature yesterday

Maximum temperature yesterday: 72 °F (at 2:50 PM)
Minimum temperature yesterday: 52 °F (at 3:50 AM)
Average temperature yesterday: 58 °F

Past Weeks' High & Low Weather Summary

 TemperatureHumidityPressure
High73 °F (Aug 16, 3:50 PM)100% (Aug 13, 10:50 PM)29.89 "Hg (Aug 13, 10:50 PM)
Low41 °F (Aug 25, 5:20 AM)38% (Aug 16, 3:50 PM)29.27 "Hg (Aug 19, 1:20 AM)
Average58 °F81%29.60 "Hg
* Reported Aug 13 4:20 PM — Aug 28 4:20 PM, Eskilstuna, Weather by CustomWeather, © 2014

Note: Actual official high and low records may vary slightly from our data, if they occured in-between our weather recording intervals... More about our weather records

Advertising

Eskilstuna weather history for previous 24 hours

 ConditionsComfort  
Time TempWeatherWind HumidityBarometerVisibility
4:20 PM
Aug 28
66 °FSunny.7 mph46%29.89 "Hg10 mi
3:50 PM66 °FSunny.9 mph49%29.89 "Hg10 mi
3:20 PM66 °FSunny.9 mph49%29.89 "Hg10 mi
2:50 PM66 °FSunny.9 mph49%29.89 "Hg10 mi
2:20 PM68 °FPassing clouds.9 mph46%29.89 "HgN/A
1:50 PM68 °FSunny.12 mph46%29.89 "Hg10 mi
1:20 PM68 °FPassing clouds.9 mph49%29.89 "HgN/A
12:50 PM66 °FPassing clouds.10 mph49%29.89 "HgN/A
12:20 PM66 °FPassing clouds.10 mph49%29.89 "HgN/A
11:50 AM66 °FPassing clouds.9 mph52%29.89 "HgN/A
11:20 AM64 °FPassing clouds.8 mph56%29.89 "HgN/A
10:50 AM63 °FPassing clouds.8 mph64%29.89 "HgN/A
10:20 AM61 °FSunny.9 mph63%29.89 "Hg10 mi
9:50 AM59 °FSunny.9 mph63%29.89 "Hg10 mi
9:20 AM59 °FPassing clouds.8 mph68%29.86 "HgN/A
8:50 AM54 °FSunny.10 mph77%29.89 "Hg10 mi
8:20 AM54 °FSunny.12 mph72%29.89 "Hg10 mi
7:50 AM54 °FSunny.10 mph77%29.86 "Hg10 mi
7:20 AM54 °FSunny.9 mph77%29.86 "Hg10 mi
6:50 AM52 °FSunny.8 mph77%29.86 "Hg10 mi
6:20 AM50 °FClear.6 mph76%29.86 "Hg10 mi
5:50 AM48 °FClear.5 mph82%29.86 "Hg10 mi
5:20 AM46 °FPassing clouds.5 mph87%29.86 "HgN/A
4:50 AM46 °FCool.3 mph82%29.86 "HgN/A
4:20 AM46 °FCool.3 mph82%29.86 "HgN/A
3:50 AM48 °FCool.3 mph76%29.86 "HgN/A
3:20 AM50 °FPassing clouds.3 mph76%29.83 "HgN/A
2:50 AM50 °FPassing clouds.3 mph76%29.83 "HgN/A
2:20 AM50 °FCool.2 mph76%29.83 "HgN/A
1:50 AM50 °FCool.5 mph76%29.83 "HgN/A
1:20 AM50 °FCool.3 mph76%29.83 "HgN/A
12:50 AM52 °FCool.2 mph72%29.83 "HgN/A
12:20 AM52 °FCool.6 mph72%29.83 "HgN/A
11:50 PM
Aug 27
52 °FCool.7 mph72%29.83 "HgN/A
11:20 PM52 °FCool.8 mph72%29.83 "HgN/A
10:50 PM52 °FCool.6 mph72%29.83 "HgN/A
10:20 PM52 °FClear.6 mph72%29.83 "Hg10 mi
9:50 PM54 °FClear.6 mph67%29.83 "Hg10 mi
9:20 PM54 °FClear.5 mph67%29.83 "Hg10 mi
8:50 PM55 °FSunny.6 mph63%29.80 "Hg10 mi
8:20 PM57 °FSunny.8 mph59%29.80 "Hg10 mi
7:50 PM61 °FSunny.9 mph52%29.80 "Hg10 mi
7:20 PM63 °FSunny.9 mph52%29.80 "Hg10 mi
6:20 PM66 °FSunny.16 mph46%29.80 "Hg10 mi
Weather by CustomWeather, © 2014

See weather overviewHow to use our weather pages